Time,TemperatureF,DewpointF,PressureIn,WindDirection,WindDirectionDegrees,WindSpeedMPH,WindSpeedGustMPH,Humidity,HourlyPrecipIn,Conditions,Clouds,dailyrainin,SoftwareType,DateUTC
2013-03-03 00:22:00,25.0,-99.9,30.01,North,-999,-999.0,-999.0,100,-99.99,,,-99.99,,2013-03-03 05:22:00,
2013-03-03 00:32:00,25.0,-99.9,30.01,North,-999,-999.0,-999.0,100,-99.99,,,-99.99,,2013-03-03 05:32:00,
2013-03-03 00:42:00,25.0,-99.9,30.01,North,-999,-999.0,-999.0,100,-99.99,,,-99.99,,2013-03-03 05:42:00,
2013-03-03 01:22:00,25.0,-99.9,30.01,North,-999,-999.0,-999.0,100,-99.99,,,-99.99,,2013-03-03 06:22:00,
2013-03-03 01:32:00,25.0,-99.9,30.01,North,-999,-999.0,-999.0,100,-99.99,,,-99.99,,2013-03-03 06:32:00,
2013-03-03 01:42:00,25.0,-99.9,30.01,North,-999,-999.0,-999.0,100,-99.99,,,-99.99,,2013-03-03 06:42:00,
2013-03-03 02:32:00,24.0,-99.9,30.01,North,-999,-999.0,-999.0,100,-99.99,,,-99.99,,2013-03-03 07:32:00,
2013-03-03 02:42:00,24.0,-99.9,30.01,North,-999,-999.0,-999.0,100,-99.99,,,-99.99,,2013-03-03 07:42:00,
2013-03-03 03:21:00,24.0,-99.9,29.99,North,-999,-999.0,-999.0,100,-99.99,,,-99.99,,2013-03-03 08:21:00,
2013-03-03 03:32:00,24.0,-99.9,29.99,North,-999,-999.0,-999.0,100,-99.99,,,-99.99,,2013-03-03 08:32:00,
2013-03-03 03:42:00,24.0,-99.9,29.99,North,-999,-999.0,-999.0,100,-99.99,,,-99.99,,2013-03-03 08:42:00,
2013-03-03 04:21:00,23.0,22.0,29.98,North,-999,-999.0,-999.0,95,-99.99,,,-99.99,,2013-03-03 09:21:00,
2013-03-03 04:32:00,23.0,22.0,29.98,North,-999,-999.0,-999.0,95,-99.99,,,-99.99,,2013-03-03 09:32:00,
2013-03-03 04:42:00,23.0,22.0,29.98,North,-999,-999.0,-999.0,95,-99.99,,,-99.99,,2013-03-03 09:42:00,
2013-03-03 05:21:00,23.0,21.0,29.98,North,-999,-999.0,-999.0,90,-99.99,,,-99.99,,2013-03-03 10:21:00,
2013-03-03 05:32:00,23.0,21.0,29.98,North,-999,-999.0,-999.0,90,-99.99,,,-99.99,,2013-03-03 10:32:00,
2013-03-03 05:42:00,23.0,21.0,29.98,North,-999,-999.0,-999.0,90,-99.99,,,-99.99,,2013-03-03 10:42:00,
2013-03-03 06:32:00,24.0,19.0,29.98,North,-999,-999.0,-999.0,80,-99.99,,,-99.99,,2013-03-03 11:32:00,
2013-03-03 06:42:00,24.0,19.0,29.98,North,-999,-999.0,-999.0,80,-99.99,,,-99.99,,2013-03-03 11:42:00,
2013-03-03 07:32:00,23.0,-99.9,29.99,North,-999,-999.0,-999.0,100,-99.99,,,-99.99,,2013-03-03 12:32:00,
2013-03-03 07:43:00,23.0,-99.9,29.99,North,-999,-999.0,-999.0,100,-99.99,,,-99.99,,2013-03-03 12:43:00,
2013-03-03 08:22:00,24.0,23.0,30.00,North,-999,-999.0,-999.0,98,-99.99,,,-99.99,,2013-03-03 13:22:00,
2013-03-03 08:32:00,24.0,23.0,30.00,North,-999,-999.0,-999.0,98,-99.99,,,-99.99,,2013-03-03 13:32:00,
2013-03-03 08:42:00,24.0,23.0,30.00,North,-999,-999.0,-999.0,98,-99.99,,,-99.99,,2013-03-03 13:42:00,
2013-03-03 09:22:00,23.0,-99.9,30.00,North,-999,-999.0,-999.0,100,-99.99,,,-99.99,,2013-03-03 14:22:00,
2013-03-03 09:32:00,23.0,-99.9,30.00,North,-999,-999.0,-999.0,100,-99.99,,,-99.99,,2013-03-03 14:32:00,
2013-03-03 09:42:00,23.0,-99.9,30.00,North,-999,-999.0,-999.0,100,-99.99,,,-99.99,,2013-03-03 14:42:00,
2013-03-03 10:22:00,25.0,-99.9,30.00,North,-999,-999.0,-999.0,100,-99.99,,,-99.99,,2013-03-03 15:22:00,
2013-03-03 10:33:00,25.0,-99.9,30.00,North,-999,-999.0,-999.0,100,-99.99,,,-99.99,,2013-03-03 15:33:00,
2013-03-03 10:42:00,25.0,-99.9,30.00,North,-999,-999.0,-999.0,100,-99.99,,,-99.99,,2013-03-03 15:42:00,
2013-03-03 11:32:00,25.0,-99.9,30.00,North,-999,-999.0,-999.0,100,-99.99,,,-99.99,,2013-03-03 16:32:00,
2013-03-03 11:42:00,25.0,-99.9,30.00,North,-999,-999.0,-999.0,100,-99.99,,,-99.99,,2013-03-03 16:42:00,
2013-03-03 12:22:00,26.0,25.0,30.00,North,-999,-999.0,-999.0,97,-99.99,,,-99.99,,2013-03-03 17:22:00,
2013-03-03 12:32:00,26.0,25.0,30.00,North,-999,-999.0,-999.0,97,-99.99,,,-99.99,,2013-03-03 17:32:00,
2013-03-03 12:42:00,26.0,25.0,30.00,North,-999,-999.0,-999.0,97,-99.99,,,-99.99,,2013-03-03 17:42:00,
2013-03-03 13:22:00,25.0,23.0,30.00,North,-999,-999.0,-999.0,92,-99.99,,,-99.99,,2013-03-03 18:22:00,
2013-03-03 13:32:00,25.0,23.0,30.00,North,-999,-999.0,-999.0,92,-99.99,,,-99.99,,2013-03-03 18:32:00,
2013-03-03 13:42:00,25.0,23.0,30.00,North,-999,-999.0,-999.0,92,-99.99,,,-99.99,,2013-03-03 18:42:00,
2013-03-03 14:22:00,25.0,21.0,29.99,North,-999,-999.0,-999.0,86,-99.99,,,-99.99,,2013-03-03 19:22:00,
2013-03-03 14:32:00,25.0,21.0,29.99,North,-999,-999.0,-999.0,86,-99.99,,,-99.99,,2013-03-03 19:32:00,
2013-03-03 14:42:00,25.0,21.0,29.99,North,-999,-999.0,-999.0,86,-99.99,,,-99.99,,2013-03-03 19:42:00,
2013-03-03 15:22:00,26.0,21.0,29.98,North,-999,-999.0,-999.0,81,-99.99,,,-99.99,,2013-03-03 20:22:00,
2013-03-03 15:32:00,26.0,21.0,29.98,North,-999,-999.0,-999.0,81,-99.99,,,-99.99,,2013-03-03 20:32:00,
2013-03-03 15:42:00,26.0,21.0,29.98,North,-999,-999.0,-999.0,81,-99.99,,,-99.99,,2013-03-03 20:42:00,
2013-03-03 16:32:00,26.0,19.0,29.98,North,-999,-999.0,-999.0,73,-99.99,,,-99.99,,2013-03-03 21:32:00,
2013-03-03 16:42:00,26.0,19.0,29.98,North,-999,-999.0,-999.0,73,-99.99,,,-99.99,,2013-03-03 21:42:00,
2013-03-03 17:22:00,26.0,19.0,29.99,North,-999,-999.0,-999.0,73,-99.99,,,-99.99,,2013-03-03 22:22:00,
2013-03-03 17:32:00,26.0,19.0,29.99,North,-999,-999.0,-999.0,73,-99.99,,,-99.99,,2013-03-03 22:32:00,
2013-03-03 17:42:00,26.0,19.0,29.99,North,-999,-999.0,-999.0,73,-99.99,,,-99.99,,2013-03-03 22:42:00,
2013-03-03 18:22:00,26.0,17.0,30.01,North,-999,-999.0,-999.0,70,-99.99,,,-99.99,,2013-03-03 23:22:00,
2013-03-03 18:32:00,26.0,17.0,30.01,North,-999,-999.0,-999.0,70,-99.99,,,-99.99,,2013-03-03 23:32:00,
2013-03-03 18:42:00,26.0,17.0,30.01,North,-999,-999.0,-999.0,70,-99.99,,,-99.99,,2013-03-03 23:42:00,
2013-03-03 19:22:00,25.0,17.0,30.01,North,-999,-999.0,-999.0,72,-99.99,,,-99.99,,2013-03-04 00:22:00,
2013-03-03 19:32:00,25.0,17.0,30.01,North,-999,-999.0,-999.0,72,-99.99,,,-99.99,,2013-03-04 00:32:00,
2013-03-03 19:42:00,25.0,17.0,30.01,North,-999,-999.0,-999.0,72,-99.99,,,-99.99,,2013-03-04 00:42:00,
2013-03-03 20:22:00,25.0,17.0,30.02,North,-999,-999.0,-999.0,68,-99.99,,,-99.99,,2013-03-04 01:22:00,
2013-03-03 20:32:00,25.0,17.0,30.02,North,-999,-999.0,-999.0,68,-99.99,,,-99.99,,2013-03-04 01:32:00,
2013-03-03 20:42:00,25.0,17.0,30.02,North,-999,-999.0,-999.0,68,-99.99,,,-99.99,,2013-03-04 01:42:00,
2013-03-03 21:22:00,26.0,18.0,30.04,North,-999,-999.0,-999.0,72,-99.99,,,-99.99,,2013-03-04 02:22:00,
2013-03-03 21:32:00,26.0,18.0,30.04,North,-999,-999.0,-999.0,72,-99.99,,,-99.99,,2013-03-04 02:32:00,
2013-03-03 21:42:00,26.0,18.0,30.04,North,-999,-999.0,-999.0,72,-99.99,,,-99.99,,2013-03-04 02:42:00,
2013-03-03 22:22:00,24.0,23.0,30.04,North,-999,-999.0,-999.0,95,-99.99,,,-99.99,,2013-03-04 03:22:00,
2013-03-03 22:32:00,24.0,23.0,30.04,North,-999,-999.0,-999.0,95,-99.99,,,-99.99,,2013-03-04 03:32:00,
2013-03-03 22:42:00,24.0,23.0,30.04,North,-999,-999.0,-999.0,95,-99.99,,,-99.99,,2013-03-04 03:42:00,
2013-03-03 23:22:00,24.0,21.0,30.04,North,-999,-999.0,-999.0,86,-99.99,,,-99.99,,2013-03-04 04:22:00,
2013-03-03 23:32:00,24.0,21.0,30.04,North,-999,-999.0,-999.0,86,-99.99,,,-99.99,,2013-03-04 04:32:00,
2013-03-03 23:42:00,24.0,21.0,30.04,North,-999,-999.0,-999.0,86,-99.99,,,-99.99,,2013-03-04 04:42:00,